www.pogodaiklimat.ru

Погода и климат >> Архив погоды >> Россия >> Дагестан >> Кочубей


ПОГОДА в Кочубее

  • Прогноз погоды в Кочубее
  • Монитор погоды в Кочубее

АРХИВ ПОГОДЫ в Кочубее

Время (UTC), дата Ветер
(напр.,м/с)
 
Видим.   Явления Облачность Т
(С)
Тd
(С)
f
(%)
Тe
(С)
Тes
(С)
Комфортность P
(гПа)
Po
(гПа)
Тmin
(С)
Tmax
(С)
R
(мм)
R24
(мм)
S
(см)
06 13.09 В 4 20 км {туман} 8/6 600 м
[Cb calv Ac trans]
+22.3 +12.2 53 +25 +26 комфорт 1024.7 1027.3
09 13.09 Ю 4 20 км 8/8 600 м
[Cb calv]
+21.8 +11.1 51 +24 +25 комфорт 1024.0 1026.6
12 13.09 ЮВ 5 20 км {ливн. осадки} 8/8 600 м
[Cb calv]
+23.4 +11.0 46 +26 +26 жарко 1022.9 1025.5
15 13.09 В 4 20 км 3/0
[Ac lent]
+20.7 +10.4 52 +23 +23 комфорт 1023.1 1025.7 +23.9 2
18 13.09 В 1 4000 м ясно +14.9 +10.9 77 +15 +15 1023.6 1026.3
21 13.09 штиль 0 4000 м ясно +11.5 +9.9 90 +11 +11 1022.6 1025.3
00 14.09 СВ 1 4000 м дымка ясно +11.1 +10.2 94 +11 +11 1022.4 1025.1
03 14.09 С 1 4000 м дымка ясно +10.3 +9.6 95 +10 +10 1022.5 1025.2 +9.6
06 14.09 В 5 20 км 3/3
[Cu hum Ci fib]
+22.8 +13.6 56 +26 +28 жарко 1022.5 1025.1
09 14.09 В 6-11
{11}
20 км 6/3 600 м
[Cb calv Ci fib]
+25.3 +6.3 30 +25 +28 комфорт 1021.3 1023.9
12 14.09 В 6-11
{13}
20 км ясно +25.0 +7.0 32 +25 +27 комфорт 1020.0 1022.6
15 14.09 В 5
{11}
20 км ясно +21.5 +11.0 51 +23 +23 комфорт 1019.4 1022.0 +25.8
18 14.09 В 2 4000 м ясно +15.1 +11.0 76 +15 +15 1019.8 1022.5
21 14.09 В 2 4000 м ясно +13.5 +11.5 88 +13 +13 1019.0 1021.6
00 15.09 В 1 4000 м ясно +13.0 +11.7 92 +13 +13 1018.0 1020.7
03 15.09 В 2 2000 м 8/0
[Ci sp]
+14.3 +13.1 92 +14 +14 1018.1 1020.7 +12.9
06 15.09 ЮВ 4 20 км 3/3 600 м
[Sc]
+21.7 +13.0 58 +24 +27 комфорт 1018.3 1020.9
09 15.09 ЮЗ 2 20 км 3/3 600 м
[Cu hum]
+25.8 +11.9 42 +27 +36 жарко 1017.5 1020.1
12 15.09 З 3 20 км 8/3 600 м
[Cu hum Ci sp]
+28.6 +5.6 23 +27 +30 жарко 1016.1 1018.7
15 15.09 З 1 20 км 8/1 600 м
[Cu hum Ac trans Ci sp]
+25.7 +7.2 31 +26 +26 жарко 1016.4 1018.9 +28.8
18 15.09 штиль 0 4000 м 4/0
[Ci fib]
+19.4 +9.0 51 +20 +20 1017.7 1020.3
21 15.09 Ю 1 4000 м ясно +15.8 +9.2 65 +17 +17 1017.9 1020.5
00 16.09 СЗ 3 4000 м 3/0
[Ci fib]
+14.9 +6.9 59 +14 +14 1018.5 1021.2
03 16.09 С 3 20 км ясно +10.9 +5.9 71 +9 +9 1018.7 1021.4 +10.9
06 16.09 СВ 3 20 км ясно +21.2 +10.2 49 +23 +28 комфорт 1018.7 1021.3
09 16.09 СВ 5 20 км ясно +26.8 +8.8 32 +27 +33 жарко 1016.3 1018.8
12 16.09 СВ 6 20 км ясно +26.1 +11.7 41 +27 +30 жарко 1014.3 1016.8
15 16.09 В 5 20 км 3/0
[Ci fib]
+22.3 +15.4 65 +26 +26 жарко 1013.1 1015.7 +27.7
18 16.09 В 3 4000 м 4/0
[Ci fib]
+18.4 +17.0 92 +19 +19 1013.0 1015.6
21 16.09 В 1 4000 м 4/0
[Ci fib]
+17.1 +16.0 93 +18 +18 1012.6 1015.2
00 17.09 В 1 4000 м дымка 6/0
[Ci fib]
+15.4 +14.8 96 +16 +16 1011.8 1014.5
03 17.09 штиль 0 200 м туман н/о +16.2 +15.7 97 +16 +16 1011.8 1014.4 +15.3
06 17.09 З 1 20 км в посл. час туман 9/9 600 м
[Sc]
+20.1 +19.4 96 +25 +25 комфорт 1012.0 1014.6
09 17.09 ЮЗ 1 20 км 6/3 600 м
[Cu hum Cc]
+27.8 +13.8 42 +30 +38 жарко 1010.2 1012.7
12 17.09 СЗ 2 20 км 9/3 600 м
[Cu hum Ac trans Ci sp]
+28.3 +10.4 33 +29 +31 жарко 1009.0 1011.5
15 17.09 СЗ 6
{13}
20 км в посл. час ливневой дождь 10/8 600 м
[Cb cap Ac As]
+21.1 +10.2 50 +23 +23 комфорт 1010.3 1012.9 +29.0 0.1
18 17.09 СЗ 1 4000 м {ливн. осадки} 10/10 600 м
[Sc]
+19.0 +9.6 54 +21 +21 комфорт 1011.2 1013.8
21 17.09 ЮЗ 2 4000 м 8/0
[Ac trans Ci fib]
+16.2 +11.5 74 +16 +16 1011.5 1014.1
00 18.09 ЮЗ 3 4000 м 3/0
[Ac trans]
+15.7 +11.9 78 +15 +15 1011.8 1014.4
03 18.09 З 3 20 км 3/0
[Ac trans]
+15.4 +11.7 79 +15 +15 1012.9 1015.5 +15.0
06 18.09 З 5 20 км ясно +22.3 +11.1 49 +24 +28 комфорт 1014.4 1017.0
09 18.09 З 4 20 км ясно +26.7 +8.8 32 +27 +34 жарко 1014.0 1016.5
12 18.09 ЮЗ 3 20 км ясно +28.7 +6.5 25 +28 +32 жарко 1012.7 1015.2
15 18.09 ЮВ 3 20 км ясно +26.0 +8.0 32 +26 +26 жарко 1012.2 1014.7 +29.1
18 18.09 ЮВ 5 4000 м ясно +21.1 +11.8 55 +23 +23 комфорт 1012.1 1014.7
21 18.09 ЮВ 3 4000 м ясно +18.7 +15.0 79 +20 +20 1011.9 1014.5
00 19.09 З 4 4000 м 1/0
[Ci fib]
+15.6 +13.8 89 +15 +15 1013.1 1015.8
03 19.09 СЗ 4
{11}
20 км ясно +14.7 +10.9 78 +13 +13 1016.5 1019.2 +14.7
06 19.09 З 5 20 км ясно +20.7 +8.6 46 +22 +25 комфорт 1019.5 1022.1
09 19.09 СЗ 6
{11}
20 км ясно +22.8 +4.4 30 +23 +27 комфорт 1019.5 1022.1
12 19.09 СЗ 5
{10}
20 км 3/0
[Ci fib]
+24.1 +2.2 24 +23 +26 комфорт 1019.2 1021.8
15 19.09 С 2 20 км 3/0
[Ac trans Ci fib]
+20.0 -1.6 23 +21 +21 комфорт 1020.0 1022.6 +24.2
18 19.09 СВ 2 4000 м ясно +13.7 -1.8 34 +14 +14 1020.4 1023.1
21 19.09 В 1 4000 м ясно +12.6 +3.0 52 +13 +13 1019.7 1022.4
00 20.09 С 1 4000 м ясно +10.3 +4.5 67 +10 +10 1019.0 1021.7
03 20.09 С 1 20 км 6/0
[Ac trans Ci fib]
+10.7 -0.1 47 +11 +11 1018.9 1021.6 +10.0

 

Местоположение метеостанции Кочубей (Дагестан, Россия): широта 44.40 долгота 46.55 высота над уровнем моря -21 м.

В архиве по умолчанию представлена погода в Кочубее за последнюю неделю. Архивные данные за месяц целиком и за предыдущие месяцы, начиная с января 2011 года, Вы можете получить, выбрав интересующий диапазон дат из раскрывающегося списка и нажав кнопку "Ввод!".


*Определитесь, кто Вы:
робот инопланетянин человек

Внимание! Время в таблицах - всемирное. Для получения местного времени необходимо прибавить поправку, которая равна 3 ч.

Смотрите также архив погоды в соседних городах и на ближайших метеорологических станциях:

Погода в Терекли-Мектебе (Дагестан, Россия) (61 км)
Погода в Артезиане (Калмыкия, Россия) (63 км)
Погода в Кизляре (Дагестан, Россия) (65 км)
Погода на Острове Тюлений (Дагестан, Россия) (74 км)
Погода в Южно-Сухокумске (Дагестан, Россия) (77 км)
Погода в Бабаюрте (Дагестан, Россия) (91 км)
Погода в Шелковской (Чечня, Россия) (98 км)
Погода в Рощино (Ставропольский край, Россия) (111 км)
Погода в Комсомольском (Калмыкия, Россия) (113 км)
Погода в Гудермесе (Чечня, Россия) (122 км)

Пояснения к столбцам:

Ветер - указаны скорость ветра в м/с - средняя за 10 мин, порывы в срок и между сроками (в фигурных скобках) и направление, откуда дует ветер: С - северный, СВ - северо-восточный, В - восточный, ЮВ - юго-восточный, Ю - южный, ЮЗ - юго-западный, З - западный, СЗ - северо-западный.
Видимость - горизонтальная дальность видимости в метрах или километрах. При видимости от 1 до 10 км при отсутствии осадков обычно наблюдается дымка, при ухудшении видимости до 1 км и менее - туман. В сухую погоду видимость может ухудшаться дымом, пылью или мглою.
Явления - указаны атмосферные явления, наблюдавшиеся в срок или в последний час перед сроком; фигурными скобками обозначены явления, наблюдавшиеся между сроками (за 1-3 часа до срока); квадратными скобками обозначены град или гололедные отложения с указанием их диаметра в мм.
Облачность - указаны через наклонную черту общая и нижняя облачность в баллах и высота нижней границы облаков в метрах; квадратными скобками обозначены формы облаков: Ci - перистые, Cs - перисто-слоистые, Cc - перисто-кучевые, Ac - высококучевые, As - высокослоистые, Sc - слоисто-кучевые, Ns - слоисто-дождевые, Cu - кучевые, Cb - кучево-дождевые. Подробнее классификацию облаков см. в Атласе облаков (PDF).
T - Температура воздуха - температура, измеренная на высоте 2 м над землей.
Td - Температура точки росы - температура, при понижении до которой содержащийся в воздухе водяной пар достигнет насыщения.
f - Относительная влажность воздуха - влажноcть воздуха, измеренная на высоте 2 м над землей.
Te - Эффективная температура - температура, которую ощущает одетый по сезону человек в тени. Характеристика душности погоды. При расчете учитывается влияние влажности воздуха и скорости ветра на теплоощущения человека.
Tes - Эффективная температура на солнце - температура, которую ощущает человек, с поправкой на солнечный нагрев. Характеристика знойности погоды. Зависит от высоты солнца над горизонтом, облачности и скорости ветра. Ночью, в пасмурную погоду, а также при ветре 12 м/с и более поправка равна нулю.
P - Атмосферное давление - приведенное к уровню моря атмосферное давление.
Po - Атмосферное давление - измеренное на уровне метеостанции атмосферное давление.
Tmin - Минимальная температура - минимум температуры воздуха на высоте 2 м над землей.
Tmax - Максимальная температура - максимум температуры воздуха на высоте 2 м над землей.
R - Количество осадков - Количество выпавших осадков за период времени, мм. При наведении курсора мыши на число - период времени, за который выпало указанное количество осадков.
R24 - Количество осадков - Количество выпавших осадков за 24 часа, мм.
S - Снежный покров - Высота снежного покрова, см. При наведении курсора мыши на число - состояние снежного покрова и степень покрытия местности в баллах.